{"data":{"norad_id":61533,"intl_designator":"2024-184B","name":"STARLINK-11323 [DTC]","alt_names":[],"object_type":"PAYLOAD","status":"ACTIVE","operator":null,"country":"US","launch_date":"2024-10-15","launch_site_code":"AFWTR","launch_vehicle":null,"mission":null,"orbit_class":"UNKNOWN","rcs_meters":null,"size_class":null,"mass_kg":null,"dimensions":null,"purposes":["comms"],"wikipedia_slug":null,"has_3d_model":false,"image_url":null,"decayed_at":null,"tle_current":{"epoch":"2026-05-25T04:40:00.474816Z","epoch_age_seconds":65191,"freshness":"FRESH","line1":"1 61533U 24184B   26145.19444994  .00001170  00000+0  14509-4 0  9990","line2":"2 61533  53.1586 219.0943 0000847  76.8385 283.2727 15.69712948 92433","mean_motion":15.69712948,"eccentricity":8.47e-5,"inclination_deg":53.1586,"raan_deg":219.0943,"arg_perigee_deg":76.8385,"mean_anomaly_deg":283.2727,"bstar":1.4509e-5,"rev_number":9243,"period_min":91.736517930538,"perigee_km":359.14761804029,"apogee_km":360.28901073055,"semimajor_km":6737.8553143854,"source":"CELESTRAK","updated_at":"2026-05-25T13:38:19.397209Z"}}}